Andrews, NC

1:26 AM EDT on July 21, 2017 (GMT -0400)
Andrews

Weather History for KRHP - August, 2013

Change the Weather History Date:

Tuesday, August 13, 2013

  Actual Average (KMMI) Record (KMMI)
Temperature  
Mean Temperature 74 °F -  
Max Temperature 82 °F 86 °F 91 °F (2016)
Min Temperature 67 °F 63 °F 55 °F (2014)
Cooling Degree Days 10    
Growing Degree Days 24 (Base 50)    
Moisture  
Dew Point 69 °F    
Average Humidity 90    
Maximum Humidity 100    
Minimum Humidity 65    
Precipitation  
Precipitation 0.00 in - - ()
Sea Level Pressure  
Sea Level Pressure 30.00 in    
Wind  
Wind Speed 1 mph (WSW)    
Max Wind Speed 9 mph    
Max Gust Speed -    
Visibility 8 miles    
Events Rain    
Averages and records for this station are not official NWS values.
T = Trace of Precipitation, MM = Missing Value Source: NWS Daily Summary

Daily Weather History Graph

Daily Weather History Graph

Search for Another Location

Airport or City:

Trip Planner

Search our weather history database for the weather conditions in past years. The results will help you decide how hot, cold, wet, or windy it might be!

Date:

Astronomy

Aug. 13, 2013 Rise Set
Actual Time 6:53 AM EDT 8:26 PM EDT
Civil Twilight 6:26 AM EDT 8:53 PM EDT
Nautical Twilight 5:54 AM EDT 9:25 PM EDT
Astronomical Twilight 5:20 AM EDT 9:59 PM EDT
Moon 1:29 PM EDT (8/13) No Moon Set
Length of Visible Light 14h 26m
Length of Day
13h 32m
Waxing Crescent, 41% of the Moon is Illuminated
Aug 13
Waxing Crescent
Aug 14
First Quarter
Aug 20
Full
Aug 28
Last Quarter
Sep 5
New

Hourly Weather History & Observations

Time (EDT) Temp. Heat Index Dew Point Humidity Pressure Visibility Wind Dir Wind Speed Gust Speed Precip Events Conditions
12:15 AM 69.3 °F - 68.9 °F 99% 30.07 in 5.0 mi Calm Calm - N/A   Overcast
12:35 AM 69.4 °F - 68.9 °F 98% 30.06 in 7.0 mi Calm Calm - N/A   Overcast
12:55 AM 69.1 °F - 68.9 °F 99% 30.05 in 7.0 mi Calm Calm - N/A   Overcast
1:15 AM 69.4 °F - 69.1 °F 99% 30.04 in 7.0 mi Calm Calm - N/A   Overcast
1:35 AM 69.6 °F - 68.9 °F 98% 30.03 in 10.0 mi Calm Calm - N/A   Overcast
1:55 AM 69.4 °F - 69.1 °F 99% 30.03 in 7.0 mi Calm Calm - N/A Rain Light Rain
2:15 AM 69.3 °F - 69.1 °F 99% 30.03 in 5.0 mi Calm Calm - N/A Rain Light Rain
2:35 AM 69.6 °F - 69.3 °F 99% 30.03 in 7.0 mi Calm Calm - N/A   Overcast
2:55 AM 69.8 °F - 69.1 °F 98% 30.03 in 7.0 mi Calm Calm - N/A   Overcast
3:15 AM 69.3 °F - 68.9 °F 99% 30.03 in 7.0 mi Calm Calm - N/A   Overcast
3:35 AM 69.6 °F - 68.9 °F 98% 30.03 in 7.0 mi Calm Calm - N/A   Overcast
3:55 AM 69.4 °F - 69.1 °F 99% 30.01 in 7.0 mi Calm Calm - N/A   Overcast
4:15 AM 69.1 °F - 68.9 °F 99% 30.01 in 7.0 mi Calm Calm - N/A   Overcast
4:35 AM 69.1 °F - 68.9 °F 99% 30.01 in 5.0 mi Calm Calm - N/A   Overcast
4:55 AM 69.1 °F - 68.9 °F 99% 30.00 in 5.0 mi Calm Calm - N/A   Overcast
5:15 AM 69.1 °F - 68.9 °F 99% 30.00 in 5.0 mi Calm Calm - N/A   Light Drizzle
5:35 AM 69.1 °F - 68.9 °F 99% 30.00 in 4.0 mi Calm Calm - N/A   Overcast
5:55 AM 69.3 °F - 69.1 °F 99% 30.00 in 5.0 mi Calm Calm - N/A Rain Light Rain
6:15 AM 69.3 °F - 69.1 °F 99% 30.00 in 4.0 mi Calm Calm - N/A Rain Light Rain
6:35 AM 69.1 °F - 68.9 °F 99% 29.99 in 4.0 mi Calm Calm - N/A Rain Rain
6:55 AM 69.1 °F - 69.1 °F 100% 29.99 in 5.0 mi Calm Calm - N/A Rain Rain
7:15 AM 69.1 °F - 69.1 °F 100% 30.00 in 4.0 mi Calm Calm - N/A Rain Rain
7:35 AM 69.3 °F - 69.1 °F 99% 30.01 in 5.0 mi Calm Calm - N/A   Overcast
7:55 AM 69.4 °F - 69.1 °F 99% 30.01 in 5.0 mi Calm Calm - N/A   Overcast
8:15 AM 70.0 °F - 69.4 °F 98% 30.01 in 7.0 mi Calm Calm - N/A   Overcast
8:35 AM 70.5 °F - 69.8 °F 98% 30.01 in 10.0 mi Calm Calm - N/A   Overcast
8:55 AM 70.9 °F - 70.2 °F 98% 30.01 in 7.0 mi Calm Calm - N/A   Overcast
9:15 AM 70.9 °F - 69.8 °F 96% 30.02 in 4.0 mi Calm Calm - N/A Rain Rain
9:35 AM 70.7 °F - 70.0 °F 98% 30.03 in 1.8 mi Calm Calm - N/A Rain Heavy Rain
9:55 AM 70.3 °F - 70.0 °F 99% 30.03 in 2.5 mi Calm Calm - N/A Rain Rain
10:15 AM 70.9 °F - 70.2 °F 98% 30.03 in 2.5 mi Calm Calm - N/A Rain Rain
10:35 AM 70.3 °F - 69.3 °F 96% 30.03 in 4.0 mi SW 5.8 mph - N/A Rain Rain
10:55 AM 69.8 °F - 68.9 °F 97% 30.04 in 5.0 mi West 4.6 mph - N/A Rain Rain
11:15 AM 70.5 °F - 69.6 °F 97% 30.04 in 7.0 mi Calm Calm - N/A Rain Light Rain
11:35 AM 71.2 °F - 70.0 °F 96% 30.04 in 10.0 mi West 3.5 mph - N/A Rain Light Rain
11:55 AM 72.5 °F - 70.0 °F 92% 30.03 in 10.0 mi WSW 4.6 mph - N/A   Overcast
12:15 PM 73.9 °F - 70.9 °F 90% 30.03 in 10.0 mi WSW 5.8 mph - N/A   Overcast
12:35 PM 75.2 °F - 70.5 °F 85% 30.02 in 10.0 mi West 4.6 mph - N/A   Overcast
12:55 PM 76.6 °F - 70.3 °F 81% 30.01 in 10.0 mi SSW 3.5 mph - N/A   Mostly Cloudy
1:15 PM 76.5 °F - 70.2 °F 81% 30.00 in 10.0 mi West 4.6 mph - N/A   Overcast
1:35 PM 77.0 °F - 70.0 °F 79% 30.00 in 10.0 mi WSW 6.9 mph - N/A   Overcast
1:55 PM 78.1 °F - 71.4 °F 80% 29.99 in 10.0 mi SSW 3.5 mph - N/A   Mostly Cloudy
2:15 PM 79.7 °F - 70.9 °F 74% 29.99 in 10.0 mi SW 5.8 mph - N/A   Scattered Clouds
2:35 PM 81.1 °F 85.0 °F 71.1 °F 71% 29.98 in 10.0 mi SW 6.9 mph - N/A   Mostly Cloudy
2:55 PM 80.4 °F 83.9 °F 70.5 °F 72% 29.97 in 10.0 mi WSW 4.6 mph - N/A   Mostly Cloudy
3:15 PM 79.0 °F - 70.3 °F 75% 29.96 in 10.0 mi WSW 5.8 mph - N/A   Mostly Cloudy
3:35 PM 79.0 °F - 70.9 °F 76% 29.96 in 10.0 mi West 3.5 mph - N/A   Overcast
3:55 PM 78.4 °F - 70.0 °F 75% 29.96 in 10.0 mi West 8.1 mph - N/A   Overcast
4:15 PM 80.8 °F 84.2 °F 70.0 °F 70% 29.95 in 10.0 mi WSW 9.2 mph - N/A   Scattered Clouds
4:35 PM 80.6 °F 83.5 °F 68.7 °F 67% 29.94 in 10.0 mi WSW 8.1 mph - N/A   Scattered Clouds
4:55 PM 81.1 °F 84.4 °F 69.1 °F 67% 29.94 in 10.0 mi WSW 8.1 mph - N/A   Scattered Clouds
5:15 PM 81.7 °F 84.9 °F 68.7 °F 65% 29.93 in 10.0 mi WSW 8.1 mph - N/A   Mostly Cloudy
5:35 PM 82.0 °F 85.7 °F 69.6 °F 66% 29.93 in 10.0 mi WSW 6.9 mph - N/A   Mostly Cloudy
5:55 PM 80.8 °F 83.8 °F 69.1 °F 67% 29.93 in 10.0 mi WSW 5.8 mph - N/A   Mostly Cloudy
6:15 PM 81.5 °F 84.6 °F 68.5 °F 65% 29.93 in 10.0 mi WSW 5.8 mph - N/A   Scattered Clouds
6:35 PM 79.5 °F - 68.5 °F 69% 29.93 in 10.0 mi WNW 5.8 mph - N/A   Mostly Cloudy
6:55 PM 79.5 °F - 68.2 °F 68% 29.93 in 10.0 mi NW 4.6 mph - N/A   Mostly Cloudy
7:55 PM 73.2 °F - 68.4 °F 85% 29.96 in 10.0 mi Calm Calm - N/A   Mostly Cloudy
8:15 PM 72.0 °F - 68.9 °F 90% 29.96 in 10.0 mi Calm Calm - N/A   Mostly Cloudy
8:35 PM 70.9 °F - 67.5 °F 89% 29.96 in 10.0 mi NNW 3.5 mph - N/A   Mostly Cloudy
8:55 PM 70.7 °F - 67.5 °F 89% 29.96 in 10.0 mi Calm Calm - N/A   Scattered Clouds
9:15 PM 69.4 °F - 68.0 °F 95% 29.96 in 10.0 mi Calm Calm - N/A   Scattered Clouds
9:35 PM 69.1 °F - 67.5 °F 95% 29.96 in 10.0 mi Calm Calm - N/A   Clear
9:55 PM 68.2 °F - 67.5 °F 98% 29.97 in 7.0 mi Calm Calm - N/A   Clear
10:15 PM 68.4 °F - 67.6 °F 98% 29.98 in 7.0 mi Calm Calm - N/A   Clear
10:35 PM 68.2 °F - 67.1 °F 96% 29.99 in 10.0 mi Calm Calm - N/A   Clear
10:55 PM 67.1 °F - 66.4 °F 98% 29.99 in 7.0 mi Calm Calm - N/A   Clear
11:15 PM 67.5 °F - 66.7 °F 98% 29.99 in 7.0 mi Calm Calm - N/A   Scattered Clouds
11:35 PM 67.1 °F - 66.4 °F 98% 29.98 in 7.0 mi Calm Calm - N/A   Scattered Clouds
11:55 PM 67.1 °F - 66.4 °F 98% 29.98 in 7.0 mi Calm Calm - N/A   Clear